Wind_Speed
13 14 14 13 14 14 13 13 12 12 12 12 12 12 12 11 11 11 11 11 11 11 12 12 11 11 10 11 11 12 13 13 13 12 12 12 11 11 11 11 11 10
13 13 14 14 14 14 14 14 13 13 12 12 12 12 12 12 11 11 11 11 11 12 13 12 12 11 10 10 10 11 11 11 11 11 11 11 10 10 10 10 11 10
13 13 13 13 13 13 14 14 14 14 13 12 12 11 12 12 11 11 11 12 12 13 13 13 12 12 11 11 11 11 10 10 10 11 11 10 10 10 10 9 10 10
13 13 13 12 12 12 13 13 13 13 13 13 12 12 12 12 12 11 11 12 12 12 13 12 13 12 12 12 12 11 11 10 10 10 10 10 10 10 10 9 9 9
14 14 14 13 13 13 13 13 13 12 12 12 12 12 12 12 12 11 11 11 11 12 12 12 12 12 12 12 11 11 10 9 9 9 9 9 10 10 10 9 9 9
15 15 15 15 15 14 14 14 13 13 13 13 12 12 12 12 12 12 12 12 11 11 12 12 12 12 12 12 11 10 10 9 9 9 9 9 10 10 10 10 10 10
15 15 15 15 15 15 14 15 14 14 14 13 12 12 12 12 12 13 13 13 13 12 12 12 12 12 12 12 11 11 11 10 10 11 11 12 12 12 12 12 12 11
16 16 16 16 16 15 15 15 15 14 14 13 13 12 12 13 13 12 12 12 13 13 13 13 13 13 14 13 13 13 13 13 13 13 13 13 13 13 14 13 13 12
16 16 16 16 16 16 16 16 15 15 14 13 13 13 13 12 12 12 12 11 11 12 12 13 14 14 14 14 15 15 15 14 14 14 14 14 14 14 14 14 13 13
17 16 16 16 16 16 16 16 16 15 15 14 14 14 14 13 13 13 12 12 11 11 12 12 13 14 14 14 14 15 15 14 14 14 13 13 14 14 14 13 13 13
17 17 16 16 16 17 17 16 17 16 16 16 16 15 15 14 14 14 13 12 11 12 12 13 13 14 13 13 13 14 14 13 13 13 13 12 12 12 12 12 12 12
18 18 17 16 16 17 17 17 17 17 16 17 17 16 16 15 14 14 14 14 13 13 13 14 14 14 14 14 13 13 13 13 12 13 12 12 12 12 12 12 12 12
19 18 18 17 16 16 17 17 17 17 17 17 16 16 16 15 14 13 13 14 15 15 14 15 15 15 15 15 14 14 13 13 13 13 13 13 13 13 13 13 12 12
19 19 19 18 17 17 17 17 17 17 17 17 16 16 16 15 15 14 14 15 15 15 16 16 16 15 15 15 14 14 14 14 14 14 14 13 13 14 13 13 13 13
19 20 20 19 19 19 18 18 18 18 18 18 17 17 16 16 16 16 15 16 16 16 16 16 16 16 15 15 15 15 15 14 15 15 15 14 15 15 14 14 14 15
20 21 21 21 21 20 20 19 19 19 19 18 17 17 18 18 17 17 17 16 17 17 17 17 17 17 16 16 16 16 16 16 16 16 16 16 16 16 15 16 17 17
23 22 22 22 21 20 20 20 20 20 20 19 18 19 19 19 19 18 18 17 18 19 19 18 18 17 16 16 16 16 17 17 17 17 17 18 18 18 17 18 19 19
24 24 23 22 22 21 21 21 21 20 20 20 19 19 20 20 20 20 19 19 19 19 18 17 17 16 17 17 18 18 18 18 18 18 19 20 19 18 18 18 18 18
24 24 24 22 22 22 22 22 22 22 21 21 20 20 20 20 20 20 20 20 20 19 18 16 16 17 17 18 19 19 19 19 20 20 20 20 18 18 18 18 17 16
24 24 23 22 22 22 22 22 23 23 23 22 22 22 21 20 20 19 20 20 19 18 18 18 18 18 18 18 19 19 19 20 21 21 20 18 17 18 18 17 17 16
24 24 24 23 22 22 22 22 23 23 22 22 22 22 22 22 21 21 20 20 20 19 19 20 19 19 19 19 19 20 20 21 23 22 20 19 18 19 19 18 18 17
25 26 25 25 25 25 25 25 24 24 23 23 23 23 22 22 22 22 22 22 22 22 22 23 22 21 21 21 21 21 21 22 23 22 21 20 20 19 19 19 19 19
27 27 27 27 28 29 30 29 27 27 27 26 25 24 24 25 24 24 24 24 24 25 25 25 25 24 23 23 24 24 23 23 24 23 23 22 22 21 21 21 20 20
30 29 29 31 33 33 32 32 31 31 31 30 28 28 27 28 28 27 27 27 27 27 27 27 27 27 26 25 26 26 26 26 26 26 26 26 26 25 24 23 22 21
31 29 31 35 37 34 30 30 31 31 31 31 31 31 31 31 32 31 30 29 30 31 30 29 29 29 28 28 28 28 29 29 29 28 28 28 27 27 25 24 23 22
30 29 31 34 33 29 25 26 28 30 32 32 32 32 32 33 34 34 33 32 32 33 33 33 33 32 31 31 31 32 33 33 33 32 31 29 28 28 27 26 24 22
Wind_Direction
184 185 189 188 188 189 185 182 180 179 178 174 170 167 167 170 171 169 163 160 163 164 166 170 171 173 180 183 180 178 181 184 185 186 190 192 194 195 195 197 203 208
192 188 190 190 189 190 188 184 180 178 175 172 172 169 168 172 174 173 170 166 167 169 170 172 171 171 175 175 174 176 180 184 186 187 193 196 195 198 202 207 210 213
197 192 193 195 192 190 189 185 181 179 175 175 176 174 172 174 176 177 176 175 174 175 176 176 176 176 174 173 176 179 182 186 188 190 196 200 199 204 210 215 218 221
199 195 194 198 197 195 192 188 186 184 180 179 179 177 177 177 179 179 179 181 182 181 181 181 182 182 181 180 181 184 186 188 188 191 199 202 203 208 212 216 220 222
199 197 195 197 201 201 197 192 191 190 187 186 182 181 182 181 182 183 182 185 186 186 187 188 188 189 189 190 190 190 191 192 193 197 205 208 211 216 218 219 222 224
198 198 197 199 202 202 199 196 196 195 193 192 189 188 189 188 190 192 191 190 191 193 194 194 196 198 196 197 199 200 200 202 203 206 211 216 217 221 224 226 227 229
198 200 200 202 203 201 198 197 198 198 197 197 197 194 194 194 197 199 198 197 198 199 197 197 200 204 205 205 206 209 210 211 214 215 217 220 222 223 227 229 231 232
200 201 202 205 204 200 200 200 199 199 199 199 199 198 199 198 196 198 201 202 203 203 202 200 202 205 208 209 211 214 216 215 219 221 221 223 224 225 227 230 232 234
203 202 200 204 205 202 202 202 201 202 202 201 200 200 204 205 201 199 201 202 204 205 205 205 207 208 210 211 212 214 216 217 219 222 223 223 224 225 227 230 231 234
207 205 202 203 204 204 205 205 203 203 204 204 204 205 206 209 209 208 207 204 202 202 202 205 207 209 212 214 214 215 216 217 218 221 224 225 227 228 229 231 232 235
211 209 207 205 205 206 208 210 208 205 205 205 206 208 209 211 211 212 215 212 206 201 200 204 206 207 210 215 216 217 217 218 218 221 224 225 228 231 231 232 232 234
213 212 211 209 208 209 211 214 213 211 211 210 209 210 211 213 213 214 217 217 214 209 205 208 210 208 209 212 216 219 220 221 220 220 223 226 227 228 229 230 232 234
213 212 213 212 211 213 215 216 217 217 218 217 216 214 213 216 218 218 218 218 217 215 214 215 216 214 212 213 215 219 221 222 222 221 223 226 227 228 228 228 229 232
213 211 212 213 214 216 218 218 217 218 219 220 221 219 216 218 221 221 221 222 221 219 220 221 221 220 219 220 221 222 224 224 223 223 224 225 227 229 230 230 230 232
212 211 211 213 215 217 219 219 217 218 220 220 220 222 221 220 221 222 221 225 227 226 226 227 226 226 225 226 227 226 227 228 227 227 227 226 227 228 230 232 234 235
212 212 212 213 215 216 219 219 219 221 224 223 221 223 225 223 223 223 223 225 228 228 229 230 230 229 227 229 231 230 229 230 230 231 230 229 230 230 231 233 237 238
214 213 214 214 215 217 220 221 220 220 224 226 225 226 229 228 227 226 225 227 230 230 229 229 231 231 231 231 233 233 231 230 231 233 234 233 233 235 236 238 241 243
217 217 217 217 218 219 221 224 224 222 223 225 227 229 232 234 233 232 229 229 231 233 233 233 233 233 234 234 234 235 235 235 234 234 236 236 235 236 240 244 247 251
221 222 221 221 222 224 226 228 229 229 228 226 227 230 233 236 237 238 237 235 235 238 241 240 239 238 239 238 237 237 238 239 239 238 240 243 241 239 241 245 249 252
224 226 226 225 226 228 231 232 232 233 233 231 230 230 232 235 237 238 239 238 237 239 240 241 242 242 242 241 241 241 241 242 242 240 241 245 245 243 243 245 248 251
223 225 228 229 231 232 234 236 236 236 235 235 234 232 232 234 235 236 238 238 237 238 239 241 241 240 240 240 243 245 245 245 245 244 242 244 245 245 246 247 248 250
223 225 229 233 235 236 237 238 239 239 239 238 237 236 235 234 235 236 238 237 238 239 240 241 240 240 238 238 240 244 246 247 248 249 249 247 245 245 246 247 249 250
227 228 231 235 238 238 238 238 238 241 242 241 239 240 241 242 241 241 242 241 240 239 240 240 240 240 240 239 239 241 243 245 247 249 250 250 249 248 247 247 249 251
236 235 234 237 237 236 236 239 240 241 240 240 240 240 242 245 246 247 249 251 251 249 246 245 245 245 244 243 242 242 242 243 245 248 250 250 250 250 249 249 250 252
248 244 241 243 244 242 242 246 249 249 247 244 241 240 241 243 244 245 248 252 256 257 255 252 251 250 250 248 246 247 247 246 247 248 250 250 250 249 248 247 247 249
256 252 247 248 252 253 253 251 251 252 251 248 244 242 242 243 243 245 247 249 252 254 255 254 253 252 251 249 247 249 251 252 252 251 250 250 250 249 247 244 242 243
Height
3232 3233 3233 3234 3235 3236 3237 3238 3239 3240 3241 3241 3242 3242 3242 3243 3244 3244 3244 3245 3246 3247 3248 3249 3249 3250 3251 3252 3252 3252 3253 3254 3255 3256 3256 3257 3258 3259 3259 3259 3260 3260
3232 3233 3233 3234 3235 3236 3237 3238 3239 3240 3241 3241 3242 3242 3243 3243 3244 3245 3245 3245 3246 3247 3248 3249 3249 3250 3251 3251 3252 3253 3253 3254 3255 3256 3256 3257 3258 3258 3258 3259 3259 3260
3232 3233 3234 3234 3235 3236 3237 3237 3238 3239 3240 3241 3242 3242 3243 3244 3244 3245 3245 3246 3246 3247 3248 3248 3249 3250 3251 3251 3252 3252 3253 3254 3254 3255 3256 3256 3257 3257 3258 3258 3258 3259
3232 3233 3234 3234 3235 3236 3237 3237 3238 3239 3240 3241 3242 3242 3243 3244 3245 3245 3245 3246 3247 3247 3248 3248 3249 3250 3250 3251 3252 3252 3253 3253 3254 3254 3255 3256 3256 3257 3257 3257 3257 3258
3231 3232 3233 3234 3235 3235 3236 3237 3238 3239 3239 3240 3241 3242 3243 3244 3244 3245 3246 3246 3247 3247 3247 3248 3249 3249 3250 3251 3251 3252 3253 3253 3253 3254 3254 3255 3255 3256 3256 3256 3257 3257
3229 3231 3232 3233 3234 3235 3236 3237 3238 3238 3239 3240 3241 3242 3242 3243 3244 3244 3245 3246 3246 3247 3247 3248 3248 3249 3249 3250 3251 3251 3252 3252 3253 3253 3254 3254 3255 3255 3255 3256 3256 3256
3227 3229 3231 3232 3233 3234 3235 3236 3237 3238 3239 3240 3240 3241 3242 3243 3243 3244 3244 3245 3245 3246 3246 3247 3248 3248 3249 3249 3250 3250 3251 3251 3252 3252 3253 3253 3253 3254 3254 3254 3254 3255
3226 3227 3229 3231 3232 3233 3234 3235 3236 3237 3238 3239 3240 3241 3241 3242 3243 3243 3244 3244 3244 3245 3245 3246 3247 3247 3248 3248 3249 3249 3250 3250 3251 3251 3251 3252 3252 3252 3252 3252 3253 3253
3225 3226 3228 3229 3231 3232 3233 3234 3236 3236 3237 3238 3239 3240 3241 3241 3242 3242 3243 3243 3244 3244 3245 3245 3246 3246 3247 3247 3248 3248 3248 3249 3249 3250 3250 3250 3250 3250 3251 3251 3251 3251
3224 3225 3226 3228 3229 3231 3232 3233 3234 3235 3236 3237 3238 3239 3240 3241 3241 3242 3242 3243 3243 3244 3244 3245 3245 3246 3246 3246 3247 3247 3247 3248 3248 3248 3249 3249 3249 3249 3249 3249 3249 3249
3223 3224 3225 3226 3228 3229 3230 3231 3232 3233 3234 3235 3236 3237 3238 3239 3240 3241 3241 3242 3242 3243 3243 3244 3244 3245 3245 3246 3246 3246 3247 3247 3247 3247 3247 3247 3247 3247 3248 3248 3248 3248
3221 3223 3224 3225 3226 3228 3229 3230 3231 3231 3232 3233 3235 3236 3236 3237 3238 3239 3240 3241 3241 3242 3242 3243 3243 3243 3244 3244 3245 3245 3246 3246 3246 3246 3246 3246 3246 3246 3246 3246 3246 3246
3219 3221 3222 3224 3225 3226 3227 3228 3229 3230 3231 3232 3233 3234 3235 3236 3236 3237 3238 3239 3240 3240 3241 3241 3242 3242 3242 3243 3243 3244 3244 3244 3245 3245 3245 3245 3245 3245 3245 3245 3245 3245
3217 3219 3220 3222 3223 3224 3225 3226 3227 3228 3229 3230 3231 3232 3233 3234 3235 3236 3236 3237 3238 3239 3239 3239 3240 3241 3241 3241 3242 3242 3243 3243 3243 3243 3243 3243 3243 3243 3243 3243 3243 3243
3215 3216 3218 3219 3221 3222 3223 3224 3225 3226 3226 3227 3228 3229 3230 3232 3233 3234 3234 3235 3236 3237 3237 3238 3238 3239 3239 3240 3240 3241 3241 3241 3242 3242 3242 3242 3241 3241 3242 3242 3242 3242
3212 3214 3215 3217 3218 3220 3221 3222 3223 3224 3224 3224 3226 3227 3228 3229 3230 3231 3232 3233 3234 3234 3235 3236 3236 3237 3237 3238 3238 3239 3239 3240 3240 3240 3240 3240 3240 3240 3240 3240 3240 3240
3210 3211 3212 3214 3216 3217 3219 3220 3221 3222 3222 3223 3224 3225 3226 3227 3228 3229 3230 3231 3231 3232 3233 3234 3235 3235 3236 3236 3237 3237 3237 3238 3238 3238 3239 3239 3239 3239 3239 3238 3238 3238
3208 3209 3210 3212 3213 3215 3216 3217 3218 3220 3221 3222 3223 3224 3225 3226 3227 3228 3229 3229 3229 3230 3232 3233 3233 3234 3235 3235 3235 3235 3235 3236 3236 3236 3236 3236 3237 3237 3237 3237 3237 3237
3206 3207 3208 3210 3211 3212 3213 3215 3216 3217 3219 3220 3221 3222 3223 3224 3225 3226 3227 3227 3228 3229 3230 3231 3232 3232 3233 3233 3233 3233 3234 3234 3233 3233 3234 3235 3235 3235 3236 3236 3236 3236
3205 3206 3207 3208 3208 3209 3211 3212 3213 3215 3216 3217 3218 3219 3221 3222 3223 3224 3224 3225 3226 3227 3228 3229 3230 3230 3231 3231 3231 3232 3232 3231 3231 3231 3232 3232 3233 3234 3234 3234 3234 3234
3202 3203 3204 3205 3206 3207 3208 3209 3210 3212 3213 3214 3215 3217 3218 3219 3220 3221 3222 3223 3223 3224 3225 3226 3227 3228 3228 3229 3229 3229 3229 3229 3228 3229 3229 3230 3231 3231 3232 3232 3232 3232
3200 3201 3202 3203 3204 3204 3204 3206 3207 3209 3210 3211 3212 3213 3214 3215 3217 3218 3219 3220 3221 3221 3222 3223 3224 3224 3225 3226 3226 3227 3227 3226 3226 3227 3227 3227 3228 3229 3229 3229 3229 3230
3196 3197 3198 3199 3200 3200 3200 3202 3204 3205 3206 3207 3208 3209 3210 3211 3212 3214 3215 3216 3217 3218 3218 3219 3220 3221 3222 3222 3223 3223 3223 3223 3223 3224 3224 3225 3225 3226 3226 3226 3226 3227
3193 3194 3194 3194 3192 3193 3196 3199 3201 3201 3202 3204 3205 3205 3206 3207 3208 3209 3210 3211 3212 3213 3214 3215 3216 3217 3217 3218 3219 3219 3219 3220 3220 3220 3221 3221 3221 3222 3222 3223 3223 3224
3189 3190 3190 3187 3185 3189 3194 3197 3198 3198 3199 3201 3201 3202 3203 3203 3204 3205 3206 3207 3208 3209 3210 3211 3212 3212 3213 3214 3215 3215 3215 3216 3216 3216 3217 3217 3217 3218 3219 3219 3220 3220
3185 3186 3185 3182 3181 3187 3192 3194 3194 3194 3194 3195 3197 3198 3199 3199 3200 3201 3202 3203 3204 3204 3205 3206 3207 3208 3209 3209 3210 3210 3211 3211 3211 3212 3212 3213 3213 3214 3215 3215 3216 3216